User: anonymous   Login
Location: Unspecified
(0.0000°N, 0.0000°E)
Time: 01:02:35
(UTC+00:00)
Language:

NOAA 16 DEB - Orbit

View from above orbital plane
View from above orbital plane
View from above satellite
View from above satellite

Ground track
Ground track

The orbit data is extracted from the following two-line orbital elements,

1 41089U 00055AY  22181.05618586  .00001371  00000-0  72092-3 0  9990
2 41089  98.7685 253.4764 0007388  38.4399 321.7300 14.15714764339517
Epoch (UTC): 30 June 2022 01:20:54
Eccentricity: 0.0007388
inclination: 98.7685°
perigee height: 834 km
apogee height: 845 km
right ascension of ascending node: 253.4764°
argument of perigee: 38.4399°
revolutions per day: 14.15714764
mean anomaly at epoch: 321.7300°
orbit number at epoch: 33951

The dashed part of the orbit path shows where the satellite is in the earth's shadow,  

DLR